Location: Caltech
(34.1382°N, 118.1253°W)
Time: 07:28:53
(UTC-07:00)

Cosmos 44 Rocket - Visible Passes

Search period start: 23 April 2014 00:00
Search period end: 03 May 2014 00:00
Orbit: 644 x 750 km, 65.1° (Epoch: 23 April)

Date Brightness Start Highest point End Pass type
(mag) Time Alt. Az. Time Alt. Az. Time Alt. Az.
23 Apr 6.4 00:11:58 10° N 00:12:07 11° N 00:12:07 11° N visible
24 Apr 6.2 23:54:55 10° NNW 23:55:30 13° N 23:55:30 13° N visible
25 Apr 5.9 22:56:56 10° N 22:57:52 13° NNE 22:57:52 13° NNE visible
26 Apr 6.0 23:37:57 10° NNW 23:39:01 16° NNW 23:39:01 16° NNW visible
27 Apr 5.6 22:39:35 10° N 22:41:26 17° NNE 22:41:26 17° NNE visible
28 Apr 5.6 23:21:02 10° NNW 23:22:38 20° NNW 23:22:38 20° NNW visible
29 Apr 5.1 22:22:25 10° N 22:25:06 23° NNE 22:25:06 23° NNE visible
30 Apr 6.3 00:03:51 10° NW 00:03:51 10° NW 00:03:51 10° NW visible
30 Apr 5.5 21:25:11 10° NNE 21:26:51 12° NE 21:27:37 11° NE visible
30 Apr 5.2 23:04:12 10° NNW 23:06:22 26° NNW 23:06:22 26° NNW visible
01 May 4.5 22:05:20 10° N 22:08:55 32° NNE 22:08:55 32° NNE visible
01 May 6.2 23:47:28 10° WNW 23:47:40 11° WNW 23:47:40 11° WNW visible
02 May 5.2 21:07:24 10° NNE 21:10:14 15° NE 21:11:30 14° ENE visible
02 May 4.8 22:47:26 10° NW 22:50:16 33° NW 22:50:16 33° NW visible
